Regional Weather Roundup
Issued by NWS

Home | Current Version | Previous Version | Text Only | Print | Product List | Glossary On
Versions: 1 2 3 4 5 6 7 8 9 10 11 12 13 14 15 16 17 18 19 20 21 22 23 24 25 26 27 28 29 30 31 32 33 34 35 36 37 38 39 40 41 42 43 44 45 46 47 48 49 50
000
ASUS43 KLMK 100910
RWRKY
KENTUCKY REGIONAL WEATHER ROUNDUP
NATIONAL WEATHER SERVICE LOUISVILLE KY
400 AM EST SAT DEC 10 2016

NOTE "FAIR" INDICATES FEW OR NO CLOUDS BELOW 12,000 FEET
WITH NO SIGNIFICANT WEATHER AND/OR OBSTRUCTIONS TO VISIBILITY.

KYZ001>023-026-027-061>063-070>075-101000-
WESTERN AND SOUTH CENTRAL KENTUCKY

CITY           SKY/WX    TMP DP  RH WIND       PRES   REMARKS
PADUCAH        CLEAR     17  12  80 CALM      30.59S
HENDERSON      CLOUDY    18  14  86 CALM      30.60S
OWENSBORO      MOCLDY    17  15  92 CALM      30.60S
HOPKINSVILLE   CLEAR     20  15  82 CALM      30.58S
BOWLING GREEN  CLEAR     18  14  84 CALM      30.59S
GLASGOW        CLEAR     17  17 100 CALM      30.58S
$$

KYZ024-025-028>034-038-045-046-053-101000-
NORTH CENTRAL KENTUCKY

CITY           SKY/WX    TMP DP  RH WIND       PRES   REMARKS
LOUISVILLE/SDF CLOUDY    23  13  65 SW6       30.59R WCI  16
LOUISVILLE/LOU CLOUDY    24  14  65 CALM      30.59S
FORT KNOX      CLEAR     14  11  87 CALM      30.56R
$$

KYZ035>037-039>044-047>052-055>060-089>105-101000-
NORTHEAST KENTUCKY

CITY           SKY/WX    TMP DP  RH WIND       PRES   REMARKS
LEXINGTON      CLOUDY    22  15  75 W3        30.54S
COVINGTON      CLOUDY    20  16  84 W3        30.54R
FRANKFORT      CLOUDY    20  13  74 CALM      30.55S
$$

KYZ054-064>069-076>088-106>120-101000-
SOUTHEAST KENTUCKY

CITY           SKY/WX    TMP DP  RH WIND       PRES   REMARKS
JACKSON        CLEAR     17  12  80 CALM      30.50F
LONDON         CLEAR     15  10  80 CALM      30.53R
SOMERSET       CLOUDY    14  14 100 CALM      30.57S
MIDDLESBORO    CLEAR     15  14  93 CALM      30.54F
MONTICELLO     SUNNY     10   6  84 NE8       30.57S WCI  -2
$$





USA.gov is the U.S. government's official web portal to all federal, state and local government web resources and services.